KI0MQ Weather Reports


time (UTC)temp
F
wind
direction
speed
knots
gust
knots
rain 1hr
in
rain 24hr
in
rain mn
in
humidity
%
barometer
mb
20260504211003 78 27 2.6 8.7 0.00 0.00 0.00 35 1002.0
20260504210505 78 19 3.5 9.6 0.00 0.00 0.00 36 1002.1
20260504210008 78 21 3.5 9.6 0.00 0.00 0.00 34 1002.0
20260504205504 79 21 2.6 7.8 0.00 0.00 0.00 35 1002.1
20260504205004 79 20 2.6 7.8 0.00 0.00 0.00 37 1002.0
20260504204508 79 356 4.3 11.3 0.00 0.00 0.00 40 1002.0
20260504204004 78 350 4.3 11.3 0.00 0.00 0.00 35 1002.1
20260504203504 79 5 3.5 9.6 0.00 0.00 0.00 37 1002.0
20260504203008 79 7 2.6 9.6 0.00 0.00 0.00 37 1002.0
20260504202504 79 350 2.6 8.7 0.00 0.00 0.00 37 1002.0
20260504201507 79 20 3.5 12.2 0.00 0.00 0.00 37 1002.0
20260504201004 79 7 3.5 12.2 0.00 0.00 0.00 36 1002.0
20260504200503 80 349 2.6 8.7 0.00 0.00 0.00 37 1001.9
20260504200008 80 344 3.5 8.7 0.00 0.00 0.00 36 1001.8
20260504195503 79 4 3.5 13.9 0.00 0.00 0.00 38 1001.9
20260504195004 80 359 3.5 13.9 0.00 0.00 0.00 38 1001.9
20260504194507 80 318 3.5 8.7 0.00 0.00 0.00 39 1001.7
20260504194004 80 324 3.5 8.7 0.00 0.00 0.00 37 1001.7
20260504193503 80 342 3.5 8.7 0.00 0.00 0.00 39 1001.7
20260504193008 80 335 3.5 8.7 0.00 0.00 0.00 36 1001.7
20260504191003 81 330 2.6 12.2 0.00 0.00 0.00 36 1001.6
20260504190504 82 345 2.6 12.2 0.00 0.00 0.00 36 1001.6
20260504190008 81 3 3.5 8.7 0.00 0.00 0.00 36 1001.6
20260504185003 81 345 2.6 10.4 0.00 0.00 0.00 35 1001.3
20260504184508 81 343 2.6 8.7 0.00 0.00 0.00 34 1001.3
20260504183503 81 322 3.5 12.2 0.00 0.00 0.00 34 1001.2
20260504183008 82 303 2.6 12.2 0.00 0.00 0.00 34 1001.3
20260504182504 82 308 3.5 12.2 0.00 0.00 0.00 33 1001.2
20260504181507 81 320 3.5 11.3 0.00 0.00 0.00 33 1001.2
20260504181004 82 319 2.6 9.6 0.00 0.00 0.00 33 1001.2
20260504180503 82 339 2.6 9.6 0.00 0.00 0.00 34 1001.2
20260504180008 82 346 2.6 10.4 0.00 0.00 0.00 34 1001.3
20260504175504 82 342 1.7 10.4 0.00 0.00 0.00 34 1001.3
20260504175004 81 290 1.7 8.7 0.00 0.00 0.00 36 1001.4
20260504174508 81 292 2.6 9.6 0.00 0.00 0.00 34 1001.4
20260504174003 80 293 2.6 9.6 0.00 0.00 0.00 35 1001.6
20260504173007 80 310 2.6 7.8 0.00 0.00 0.00 37 1001.6
20260504172503 80 314 2.6 8.7 0.00 0.00 0.00 37 1001.7
20260504172003 79 317 2.6 8.7 0.00 0.00 0.00 35 1001.6
20260504171507 79 322 4.3 11.3 0.00 0.00 0.00 36 1001.5
20260504171003 79 324 4.3 12.2 0.00 0.00 0.00 37 1001.6
20260504170504 79 317 2.6 12.2 0.00 0.00 0.00 36 1001.7
20260504151003 68 292 0.9 4.3 0.00 0.00 0.00 51 1001.8
20260504150504 68 276 0.9 4.3 0.00 0.00 0.00 52 1001.8
20260504141003 62 343 0.9 2.6 0.00 0.00 0.00 60 1002.3
20260504140504 62 316 1.7 5.2 0.00 0.00 0.00 60 1002.2
20260504130503 55 309 0.9 2.6 0.00 0.00 0.00 74 1002.4
20260504110503 48 184 0.0 0.9 0.00 0.00 0.00 84 1002.0
20260504100504 47 0 0.0 0.0 0.00 0.00 0.00 85 1002.1
20260504082003 49 0 0.0 0.0 0.00 0.00 0.00 82 1003.2
20260504081507 49 0 0.0 0.0 0.00 0.00 0.00 82 1003.3
20260504081003 49 0 0.0 0.0 0.00 0.00 0.00 81 1003.4
20260504080503 49 0 0.0 0.0 0.00 0.00 0.00 81 1003.5
20260504050503 54 0 0.0 0.0 0.00 0.00 0.00 73 1006.1
20260504050010 54 0 0.0 0.0 0.00 0.00 0.00 72 1006.1
20260504045504 55 0 0.0 0.0 0.00 0.00 0.00 71 1006.0
20260504045003 55 0 0.0 0.0 0.00 0.00 0.00 71 1006.2
20260504044508 55 0 0.0 0.0 0.00 0.00 0.00 71 1006.1
20260504044003 55 0 0.0 0.0 0.00 0.00 0.00 70 1006.1
20260504043504 56 0 0.0 0.0 0.00 0.00 0.00 69 1006.3
20260504043007 56 0 0.0 0.0 0.00 0.00 0.00 69 1006.3
20260504042503 56 0 0.0 0.0 0.00 0.00 0.00 68 1006.2
20260504041003 57 0 0.0 0.0 0.00 0.00 0.00 67 1006.4
20260504040504 57 0 0.0 0.0 0.00 0.00 0.00 67 1006.4
20260504040009 57 0 0.0 0.0 0.00 0.00 0.00 64 1006.5
20260504035503 58 0 0.0 0.0 0.00 0.00 0.00 66 1006.7
20260504035003 58 0 0.0 0.0 0.00 0.00 0.00 63 1006.7
20260504034508 58 0 0.0 0.0 0.00 0.00 0.00 64 1006.7
20260504033008 60 0 0.0 0.0 0.00 0.00 0.00 63 1006.9
20260504032004 60 0 0.0 0.0 0.00 0.00 0.00 61 1006.9
20260504030504 61 0 0.0 0.0 0.00 0.00 0.00 59 1007.0
20260504025504 61 0 0.0 0.0 0.00 0.00 0.00 58 1007.0
20260504025003 62 0 0.0 0.0 0.00 0.00 0.00 59 1007.1
20260504024507 62 0 0.0 0.0 0.00 0.00 0.00 58 1007.0
20260504024004 62 0 0.0 0.0 0.00 0.00 0.00 58 1007.1
20260504023503 62 0 0.0 0.0 0.00 0.00 0.00 56 1007.1
20260504023008 62 0 0.0 0.0 0.00 0.00 0.00 56 1007.1
20260504022503 62 0 0.0 0.0 0.00 0.00 0.00 57 1007.1
20260504021508 63 0 0.0 0.0 0.00 0.00 0.00 55 1007.1
20260504021005 63 0 0.0 0.0 0.00 0.00 0.00 55 1007.2
20260504020503 64 0 0.0 0.0 0.00 0.00 0.00 55 1007.2
20260504020008 64 0 0.0 0.0 0.00 0.00 0.00 54 1007.3
20260504015503 64 0 0.0 0.0 0.00 0.00 0.00 53 1007.4
20260504015003 65 0 0.0 0.0 0.00 0.00 0.00 52 1007.4
20260504014508 66 0 0.0 0.0 0.00 0.00 0.00 51 1007.4
20260504013503 67 0 0.0 0.0 0.00 0.00 0.00 49 1007.4
20260504013008 68 0 0.0 0.0 0.00 0.00 0.00 47 1007.4
20260504012504 68 0 0.0 0.0 0.00 0.00 0.00 47 1007.4
20260504012003 69 0 0.0 0.0 0.00 0.00 0.00 46 1007.3
20260504011508 70 0 0.0 0.0 0.00 0.00 0.00 44 1007.3
20260504011003 70 0 0.0 0.0 0.00 0.00 0.00 44 1007.4
20260504010503 71 184 0.0 0.9 0.00 0.00 0.00 42 1007.4
20260504010008 71 185 0.0 1.7 0.00 0.00 0.00 41 1007.5
20260504005505 72 182 0.0 1.7 0.00 0.00 0.00 41 1007.5
20260504005004 72 170 0.0 1.7 0.00 0.00 0.00 40 1007.6
20260504004508 73 171 0.0 1.7 0.00 0.00 0.00 39 1007.6
20260504004003 73 171 0.9 1.7 0.00 0.00 0.00 38 1007.7
20260504003503 74 215 0.9 1.7 0.00 0.00 0.00 37 1007.7
20260504003008 74 266 0.9 1.7 0.00 0.00 0.00 37 1007.7
20260504002503 75 271 0.9 1.7 0.00 0.00 0.00 36 1007.7
20260504002004 75 272 0.0 1.7 0.00 0.00 0.00 35 1007.7
20260504001507 75 273 0.0 0.9 0.00 0.00 0.00 35 1007.8
20260504000504 76 284 0.9 2.6 0.00 0.00 0.00 34 1007.9
20260504000008 76 289 0.0 2.6 0.00 0.00 0.00 34 1007.9
20260503235503 76 337 0.0 1.7 0.00 0.00 0.00 36 1007.9
20260503235003 76 339 0.0 1.7 0.00 0.00 0.00 36 1007.9
20260503234508 76 335 0.0 1.7 0.00 0.00 0.00 35 1007.9
20260503234003 76 344 0.9 1.7 0.00 0.00 0.00 36 1008.0
20260503233503 75 339 0.9 2.6 0.00 0.00 0.00 35 1008.0
20260503233008 75 307 0.9 2.6 0.00 0.00 0.00 36 1008.0
20260503232503 75 238 0.9 2.6 0.00 0.00 0.00 38 1008.0
20260503232004 75 216 0.9 2.6 0.00 0.00 0.00 36 1008.1
20260503231507 75 221 0.9 2.6 0.00 0.00 0.00 37 1008.1
20260503231004 75 217 0.0 1.7 0.00 0.00 0.00 37 1008.2
20260503230504 75 193 0.0 1.7 0.00 0.00 0.00 39 1008.2
20260503230009 75 339 0.9 2.6 0.00 0.00 0.00 36 1008.2
20260503225003 75 323 1.7 4.3 0.00 0.00 0.00 35 1008.3
20260503223503 75 307 0.9 4.3 0.00 0.00 0.00 36 1008.2
20260503222504 75 248 0.9 3.5 0.00 0.00 0.00 36 1008.4
20260503221507 75 261 0.9 3.5 0.00 0.00 0.00 35 1008.4
20260503220504 75 243 0.9 2.6 0.00 0.00 0.00 39 1008.5
20260503215503 75 239 1.7 4.3 0.00 0.00 0.00 35 1008.4
20260503215004 75 231 1.7 4.3 0.00 0.00 0.00 38 1008.4
20260503214507 75 231 1.7 4.3 0.00 0.00 0.00 38 1008.5
20260503214005 75 226 0.9 4.3 0.00 0.00 0.00 36 1008.7
20260503213503 76 224 0.9 2.6 0.00 0.00 0.00 36 1008.8
20260503213008 75 267 0.9 3.5 0.00 0.00 0.00 38 1008.9
20260503212504 75 314 1.7 3.5 0.00 0.00 0.00 37 1008.9
20260503212004 74 311 2.6 5.2 0.00 0.00 0.00 34 1009.0
20260503211507 75 324 1.7 5.2 0.00 0.00 0.00 34 1009.0